STARLINK-36488, 67306

Orbit data source: Space-Track

STARLINK-36488, 67306 is a payload satellite owned by SpaceX/Seattle (US) in LEO that was launched on Sun, 04 Jan 2026 UTC via an FALCON 9 launch vehicle from the Air Force Eastern Test Range (AFETR). Payload-class satellites include a variety of spacecraft equipped with specific instruments for various scientific and technological missions. These include communications satellites like Starlink; space stations such as the ISS; scientific satellites like the Hubble; Earth observation satellites from companies like Planet Labs, Umbra, and HawkEye 360; GPS; miniature CubeSats for education and research; and military/defense satellites.

Loading next visibility...
Identifier
67306, 2026-002B
Orbit
LEO
Country
Flag of USUS
Related business
Manufacturer
SpaceX/Seattle
Mission
Operational Commercial Communications
Bus & Motor
STARLINK V2MO, Unknown motor
Mass
575 kg wet, ~530 kg dry
Launch date (UTC)
2026-01-04 (2 months ago)
Launch vehicle
FALCON 9
Launch site
Air Force Eastern Test Range (AFETR)
Object type
Payload
Rocket body
Debris
Shape & HBR
Box + 2 Pan, 17.7 m
Radar Cross Section
36.964 m²

Expand to show TLE details & history
Last TLE update: 7 hours ago

TLE from 7 hours ago
0 STARLINK-36488
1 67306U 26002B   26062.85739997  .00030225  00000-0  11026-2 0  9999
2 67306  42.9976 358.4904 0000990 180.6771 179.4080 15.27603732 10187
Epoch: 2026-03-03T20:34Z
TLE epoch observation values (Epoch: 2026-03-03T20:34:39.357Z)
Latitude
0.00003°
Longitude
-111.804°
Altitude
483.432 km
Speed
7.625 km/s
True Right ascension
23h 53m 57s
True Declination
0° 00' 00"
Sunlit
Object was in daylight at epoch
Visualization orbit readout
Latitude
Unknown
Longitude
Unknown
Altitude
Unknown
Speed
Unknown
Apparent Right ascension
Unknown
Apparent Declination
Unknown
Sunlit
N/A
Visualization observer readout
Local Sidereal Time
07:38:48
Azimuth
Unknown
Elevation
Unknown
Doppler factor
Unknown
Orbital elements
Apogee altitude
485.603 km
Perigee altitude
484.244 km
Semi-major axis
6,863.061 km
Eccentricity
0.0001
Inclination
42.9976°
RAAN
358.4904°
Arg. of periapsis
180.6771°
True anomaly
179.40812°
Mean anomaly
179.408°
Eccentric anomaly
179.40806°
Mean motion
3.81739 °/min
Orbital period
94.31 mins
BSTAR
0.0011026
Loading maneuver chart data...
Computing Atmospheric mass density...
Loading historical data...
Loading historical data...
Loading historical data...
Loading historical data...
Loading historical data...
Loading historical data...
Loading historical data...

Documentation

Showing up to 5 results
|